• In Hungary
  • List of Countries
  • For 7 days
  • Water Temperature
  • Satellite Maps
  • Weather Map
  • News
  • Weather Widgets
  • user-avatar
    Login

    Hourly Weather Argenta

    Today, 25 September, Tuesday

    Time Temperature Precipitation Wind Pressure Humidity
    00:00 +17°C° 0 mm 6 mps 770 mmHg 53%
    01:00 +16°C° 0 mm 5 mps 770 mmHg 52%
    02:00 +16°C° 0 mm 5 mps 770 mmHg 51%
    03:00 +16°C° 0 mm 5 mps 770 mmHg 50%
    04:00 +16°C° 0 mm 5 mps 771 mmHg 49%
    05:00 +16°C° 0 mm 5 mps 771 mmHg 49%
    06:00 +16°C° 0 mm 5 mps 771 mmHg 48%
    07:00 +16°C° 0 mm 6 mps 771 mmHg 49%
    08:00 +17°C° 0 mm 6 mps 771 mmHg 44%
    09:00 +18°C° 0 mm 7 mps 772 mmHg 40%
    10:00 +20°C° 0 mm 8 mps 772 mmHg 36%
    11:00 +21°C° 0 mm 7 mps 772 mmHg 35%
    12:00 +21°C° 0 mm 7 mps 772 mmHg 35%
    13:00 +22°C° 0 mm 7 mps 772 mmHg 34%
    14:00 +21°C° 0 mm 7 mps 772 mmHg 36%
    15:00 +21°C° 0 mm 7 mps 772 mmHg 37%
    16:00 +21°C° 0 mm 6 mps 772 mmHg 38%
    17:00 +19°C° 0 mm 6 mps 772 mmHg 42%
    18:00 +17°C° 0 mm 5 mps 773 mmHg 46%
    19:00 +17°C° 0 mm 4 mps 773 mmHg 50%
    20:00 +17°C° 0 mm 4 mps 774 mmHg 50%
    21:00 +16°C° 0 mm 5 mps 775 mmHg 50%
    22:00 +16°C° 0 mm 5 mps 775 mmHg 50%
    23:00 +15°C° 0 mm 5 mps 776 mmHg 51%

    Tomorrow, 26 September, Wednesday

    Time Temperature Precipitation Wind Pressure Humidity
    00:00 +15°C° 0 mm 5 mps 776 mmHg 51%
    01:00 +15°C° 0 mm 5 mps 776 mmHg 51%
    02:00 +15°C° 0 mm 5 mps 776 mmHg 52%
    03:00 +14°C° 0 mm 5 mps 776 mmHg 53%
    04:00 +14°C° 0 mm 5 mps 777 mmHg 54%
    05:00 +14°C° 0 mm 5 mps 777 mmHg 53%
    06:00 +14°C° 0 mm 4 mps 777 mmHg 53%
    07:00 +14°C° 0 mm 4 mps 777 mmHg 53%
    08:00 +15°C° 0 mm 5 mps 777 mmHg 49%
    09:00 +16°C° 0 mm 5 mps 777 mmHg 45%
    10:00 +19°C° 0 mm 5 mps 777 mmHg 41%
    11:00 +19°C° 0 mm 5 mps 777 mmHg 39%
    12:00 +20°C° 0 mm 5 mps 776 mmHg 37%
    13:00 +21°C° 0 mm 4 mps 776 mmHg 35%
    14:00 +20°C° 0 mm 4 mps 776 mmHg 35%
    15:00 +20°C° 0 mm 3 mps 775 mmHg 35%
    16:00 +20°C° 0 mm 3 mps 775 mmHg 35%
    17:00 +19°C° 0 mm 2 mps 775 mmHg 40%
    18:00 +17°C° 0 mm 2 mps 775 mmHg 45%
    19:00 +15°C° 0 mm 2 mps 775 mmHg 50%
    20:00 +15°C° 0 mm 2 mps 775 mmHg 51%
    21:00 +14°C° 0 mm 1 mps 775 mmHg 53%
    22:00 +14°C° 0 mm 1 mps 775 mmHg 54%
    23:00 +14°C° 0 mm 2 mps 775 mmHg 54%

    Day after tomorrow, 27 September, Thursday

    Time Temperature Precipitation Wind Pressure Humidity
    00:00 +13°C° 0 mm 2 mps 775 mmHg 53%
    01:00 +13°C° 0 mm 2 mps 775 mmHg 53%
    02:00 +13°C° 0 mm 2 mps 774 mmHg 52%
    03:00 +13°C° 0 mm 2 mps 774 mmHg 51%
    04:00 +13°C° 0 mm 2 mps 773 mmHg 50%
    05:00 +13°C° 0 mm 2 mps 773 mmHg 50%
    06:00 +13°C° 0 mm 2 mps 773 mmHg 50%
    07:00 +13°C° 0 mm 2 mps 773 mmHg 50%
    08:00 +15°C° 0 mm 2 mps 773 mmHg 45%
    09:00 +18°C° 0 mm 2 mps 773 mmHg 41%
    10:00 +20°C° 0 mm 2 mps 772 mmHg 37%
    11:00 +21°C° 0 mm 2 mps 772 mmHg 34%
    12:00 +24°C° 0 mm 2 mps 771 mmHg 30%
    13:00 +25°C° 0 mm 2 mps 771 mmHg 27%
    14:00 +25°C° 0 mm 2 mps 770 mmHg 27%
    15:00 +26°C° 0 mm 1 mps 770 mmHg 27%
    16:00 +26°C° 0 mm 1 mps 769 mmHg 26%
    17:00 +24°C° 0 mm 1 mps 769 mmHg 31%
    18:00 +22°C° 0 mm 1 mps 769 mmHg 35%
    19:00 +20°C° 0 mm 1 mps 769 mmHg 39%
    20:00 +19°C° 0 mm 1 mps 768 mmHg 40%
    21:00 +19°C° 0 mm 1 mps 768 mmHg 40%
    22:00 +17°C° 0 mm 2 mps 768 mmHg 40%
    23:00 +17°C° 0 mm 2 mps 768 mmHg 41%

    28 September, Friday

    Time Temperature Precipitation Wind Pressure Humidity
    00:00 +17°C° 0 mm 2 mps 767 mmHg 41%
    01:00 +16°C° 0 mm 2 mps 767 mmHg 42%
    02:00 +16°C° 0 mm 2 mps 766 mmHg 43%
    03:00 +16°C° 0 mm 2 mps 766 mmHg 44%
    04:00 +15°C° 0 mm 2 mps 765 mmHg 45%
    05:00 +15°C° 0 mm 2 mps 765 mmHg 46%
    06:00 +15°C° 0 mm 2 mps 765 mmHg 48%
    07:00 +15°C° 0 mm 2 mps 764 mmHg 49%
    08:00 +18°C° 0 mm 2 mps 764 mmHg 44%
    09:00 +20°C° 0 mm 2 mps 764 mmHg 40%
    10:00 +24°C° 0 mm 2 mps 763 mmHg 35%
    11:00 +25°C° 0 mm 2 mps 763 mmHg 31%
    12:00 +26°C° 0 mm 2 mps 762 mmHg 27%
    13:00 +28°C° 0 mm 2 mps 762 mmHg 24%
    14:00 +28°C° 0 mm 2 mps 761 mmHg 23%
    15:00 +28°C° 0 mm 1 mps 761 mmHg 23%
    16:00 +28°C° 0 mm 1 mps 760 mmHg 22%
    17:00 +26°C° 0 mm 1 mps 760 mmHg 26%
    18:00 +24°C° 0 mm 1 mps 760 mmHg 30%
    19:00 +22°C° 0 mm 1 mps 760 mmHg 35%
    20:00 +21°C° 0 mm 1 mps 761 mmHg 35%
    21:00 +21°C° 0 mm 1 mps 761 mmHg 35%
    22:00 +20°C° 0 mm 1 mps 761 mmHg 36%
    23:00 +20°C° 0 mm 1 mps 761 mmHg 36%

    29 September, Saturday

    Time Temperature Precipitation Wind Pressure Humidity
    00:00 +19°C° 0 mm 2 mps 761 mmHg 37%
    01:00 +18°C° 0 mm 2 mps 761 mmHg 38%
    02:00 +18°C° 0 mm 2 mps 761 mmHg 41%
    03:00 +18°C° 0 mm 2 mps 761 mmHg 44%
    04:00 +17°C° 0 mm 2 mps 761 mmHg 47%
    05:00 +17°C° 0 mm 2 mps 761 mmHg 49%
    06:00 +17°C° 0 mm 2 mps 761 mmHg 51%
    07:00 +17°C° 0 mm 2 mps 761 mmHg 53%
    08:00 +19°C° 0 mm 2 mps 762 mmHg 50%
    09:00 +23°C° 0 mm 2 mps 762 mmHg 46%
    10:00 +25°C° 0 mm 3 mps 762 mmHg 43%
    11:00 +26°C° 0 mm 3 mps 762 mmHg 41%
    12:00 +27°C° 0 mm 4 mps 762 mmHg 38%
    13:00 +28°C° 0 mm 5 mps 761 mmHg 35%
    14:00 +27°C° 0 mm 5 mps 761 mmHg 36%
    15:00 +27°C° 0 mm 5 mps 761 mmHg 38%
    16:00 +26°C° 0 mm 5 mps 761 mmHg 39%
    17:00 +25°C° 0 mm 4 mps 762 mmHg 46%
    18:00 +22°C° 0 mm 4 mps 762 mmHg 53%
    19:00 +20°C° 0 mm 3 mps 763 mmHg 60%
    20:00 +20°C° 0 mm 4 mps 763 mmHg 62%
    21:00 +20°C° 0 mm 4 mps 763 mmHg 65%
    22:00 +20°C° 0 mm 4 mps 764 mmHg 67%
    23:00 +19°C° 0 mm 4 mps 764 mmHg 67%

    30 September, Sunday

    Time Temperature Precipitation Wind Pressure Humidity
    00:00 +19°C° 0 mm 4 mps 764 mmHg 67%
    01:00 +18°C° 0 mm 4 mps 764 mmHg 67%
    02:00 +18°C° 0 mm 3 mps 763 mmHg 67%
    03:00 +17°C° 0 mm 3 mps 763 mmHg 66%
    04:00 +17°C° 0 mm 3 mps 763 mmHg 66%
    05:00 +17°C° 0 mm 2 mps 763 mmHg 65%
    06:00 +17°C° 0 mm 2 mps 763 mmHg 64%
    07:00 +17°C° 0 mm 2 mps 763 mmHg 62%
    08:00 +18°C° 0 mm 2 mps 763 mmHg 55%
    09:00 +20°C° 0 mm 3 mps 763 mmHg 48%
    10:00 +22°C° 0 mm 3 mps 763 mmHg 41%
    11:00 +24°C° 0 mm 3 mps 762 mmHg 39%
    12:00 +24°C° 0 mm 3 mps 762 mmHg 38%
    13:00 +25°C° 0 mm 3 mps 762 mmHg 36%
    14:00 +25°C° 0 mm 3 mps 761 mmHg 37%
    15:00 +25°C° 0 mm 3 mps 761 mmHg 38%
    16:00 +25°C° 0 mm 3 mps 761 mmHg 39%
    17:00 +23°C° 0 mm 2 mps 761 mmHg 44%
    18:00 +20°C° 0 mm 2 mps 761 mmHg 50%
    19:00 +19°C° 0 mm 2 mps 761 mmHg 56%
    20:00 +18°C° 0 mm 2 mps 761 mmHg 58%
    21:00 +19°C° 0 mm 1 mps 761 mmHg 61%
    22:00 +18°C° 0 mm 1 mps 761 mmHg 63%
    23:00 +18°C° 0 mm 1 mps 761 mmHg 64%
    Show more